This is the latest recevied weather packets stored in our database for station/object KJ6BBX. If no packets are shown the sender has not sent any weather packets the latest 10 day(s).
| Time | Temp. | Humidity | Pressure | Rain* | Wind** | Luminosity | Snow |
|---|---|---|---|---|---|---|---|
| 1777589414 | 23.89° C | 58% | 1002.7 hPa | 0 mm | - | 378 W/m² | - |
| 1777588514 | 24.44° C | 55% | 1002.9 hPa | 0 mm | - | 413 W/m² | - |
| 1777587616 | 25° C | 55% | 1002.9 hPa | 0 mm | - | 452 W/m² | - |
| 1777586715 | 24.44° C | 55% | 1003 hPa | 0 mm | - | 358 W/m² | - |
| 1777585814 | 25.56° C | 54% | 1003.1 hPa | 0 mm | - | 458 W/m² | - |
| 1777584914 | 25.56° C | 54% | 1003.2 hPa | 0 mm | - | 566 W/m² | - |
| 1777584014 | 26.11° C | 53% | 1003.1 hPa | 0 mm | - | 524 W/m² | - |
| 1777583114 | 25.56° C | 55% | 1003.3 hPa | 0 mm | - | 548 W/m² | - |
| 1777582215 | 25.56° C | 55% | 1003 hPa | 0 mm | - | 555 W/m² | - |
| 1777581314 | 26.11° C | 54% | 1003.1 hPa | 0 mm | - | 569 W/m² | - |
| 1777580414 | 26.67° C | 50% | 1003.3 hPa | 0 mm | - | 634 W/m² | - |
| 1777579514 | 24.44° C | 52% | 1003.2 hPa | 0 mm | - | 570 W/m² | - |
| 1777578614 | 26.11° C | 50% | 1003.4 hPa | 0 mm | - | 592 W/m² | - |
| 1777577714 | 23.89° C | 53% | 1003.9 hPa | 0 mm | - | 599 W/m² | - |
| 1777576814 | 23.89° C | 55% | 1003.7 hPa | 0 mm | - | 580 W/m² | - |
| 1777575913 | 24.44° C | 51% | 1003.9 hPa | 0 mm | - | 608 W/m² | - |
| 1777575014 | 23.89° C | 53% | 1004 hPa | 0 mm | - | 601 W/m² | - |
| 1777574114 | 23.33° C | 57% | 1004.4 hPa | 0 mm | - | 535 W/m² | - |
| 1777573214 | 21.67° C | 59% | 1004.6 hPa | 0 mm | - | 556 W/m² | - |
| 1777572314 | 22.22° C | 58% | 1004.8 hPa | 0 mm | - | 509 W/m² | - |
| 1777571414 | 21.11° C | 60% | 1004.6 hPa | 0 mm | - | 509 W/m² | - |
| 1777570514 | 20° C | 63% | 1005.1 hPa | 0 mm | - | 540 W/m² | - |
| 1777569614 | 19.44° C | 65% | 1005 hPa | 0 mm | - | 524 W/m² | - |
| 1777568714 | 20° C | 65% | 1005 hPa | 0 mm | - | 491 W/m² | - |
| 1777567815 | 18.89° C | 67% | 1005 hPa | 0 mm | - | 484 W/m² | - |
* Rain since midnight (hover to see other rain measurements)
** Current wind speed in m/s (hover to see current wind gust speed)